NOAA 16 DEB, 41204

Orbit data source: Space-Track

NOAA 16 DEB, 41204 is space debris in SSO originally from a launch on Thu, 21 Sep 2000 UTC launched from the Air Force Western Test Range (AFWTR). Debris objects in space refer to the collection of defunct objects orbiting the Earth. Examples of debris include non-operational satellites, rocket bodies, and fragments generated from explosions, collisions, or faulty payload assembly.

Loading next visibility...
Identifier
41204, 2000-055DH
Orbit
SSO
Country
Flag of USUS
Related business
Manufacturer
Unknown
Mission
Spacecraft
Bus & Motor
Unknown
Mass
Unknown
Launch date (UTC)
2000-09-21 (26 years ago)
Launch vehicle
Unknown
Launch site
Air Force Western Test Range (AFWTR)
Object type
Payload
Rocket body
Debris
Shape & HBR
Unknown shape, 0.1 m
Radar Cross Section
Medium (>0.1 m² and <1 m²)

Expand to show TLE details & history
Last TLE update: 1 week ago

TLE from 1 week ago
0 NOAA 16 DEB
1 41204U 00055DH  26150.94602627  .00003066  00000-0  14229-2 0  9996
2 41204  98.7024 214.8443 0018641 269.9243  89.9798 14.21316752539878
Epoch: 2026-05-30T22:42Z
TLE epoch observation values (Epoch: 2026-05-30T22:42:16.669Z)
Latitude
-0.00005°
Longitude
-14.17991°
Altitude
823.84 km
Speed
7.441 km/s
True Right ascension
14h 19m 22s
True Declination
0° 00' 00"
Sunlit
Object was in full shadow at epoch
Visualization orbit readout
Latitude
Unknown
Longitude
Unknown
Altitude
Unknown
Speed
Unknown
Apparent Right ascension
Unknown
Apparent Declination
Unknown
Sunlit
N/A
Visualization observer readout
Local Sidereal Time
19:16:19
Azimuth
Unknown
Elevation
Unknown
Doppler factor
Unknown
Orbital elements
Apogee altitude
831.474 km
Perigee altitude
804.645 km
Semi-major axis
7,196.197 km
Eccentricity
0.00186
Inclination
98.7024°
RAAN
214.8443°
Arg. of periapsis
269.9243°
True anomaly
90.19341°
Mean anomaly
89.9798°
Eccentric anomaly
90.0866°
Mean motion
3.5554 °/min
Orbital period
101.25 mins
BSTAR
0.0014229
Loading maneuver chart data...
Computing Atmospheric mass density...
Loading historical data...
Loading historical data...
Loading historical data...
Loading historical data...
Loading historical data...
Loading historical data...
Loading historical data...

Documentation

Showing up to 5 results
|